This is the latest recevied weather packets stored in our database for station/object JF1AJE-13. If no packets are shown the sender has not sent any weather packets the latest 10 day(s).
| Time | Temp. | Humidity | Pressure | Rain* | Wind** | Luminosity | Snow |
|---|---|---|---|---|---|---|---|
| 1787471216 | 30.56° C | 55% | 1010.1 hPa | 0 mm | - | - | - |
| 1787470017 | 30.56° C | 55% | 1010.2 hPa | 0 mm | - | - | - |
| 1787468817 | 31.11° C | 54% | 1010.1 hPa | 0 mm | - | - | - |
| 1787467616 | 31.11° C | 54% | 1010.1 hPa | 0 mm | - | - | - |
| 1787466416 | 31.67° C | 53% | 1010 hPa | 0 mm | - | - | - |
| 1787465216 | 31.67° C | 56% | 1010.1 hPa | 0 mm | - | - | - |
| 1787464017 | 31.11° C | 56% | 1010.2 hPa | 0 mm | - | - | - |
| 1787462817 | 31.11° C | 56% | 1010.5 hPa | 0 mm | - | - | - |
| 1787461618 | 30.56° C | 58% | 1010.6 hPa | 0 mm | - | - | - |
| 1787460417 | 30° C | 59% | 1010.6 hPa | 0 mm | - | - | - |
| 1787459217 | 30.56° C | 59% | 1011 hPa | 0 mm | - | - | - |
| 1787458018 | 30° C | 61% | 1011.1 hPa | 0 mm | - | - | - |
| 1787456817 | 29.44° C | 63% | 1011.1 hPa | 0 mm | - | - | - |
| 1787455617 | 28.89° C | 65% | 1011.4 hPa | 0 mm | - | - | - |
| 1787454417 | 28.89° C | 65% | 1011.3 hPa | 0 mm | - | - | - |
| 1787453217 | 28.33° C | 66% | 1011.5 hPa | 0 mm | - | - | - |
| 1787452016 | 28.33° C | 67% | 1011.8 hPa | 0 mm | - | - | - |
| 1787450818 | 28.33° C | 67% | 1012 hPa | 0 mm | - | - | - |
| 1787449617 | 27.78° C | 69% | 1012.2 hPa | 0 mm | - | - | - |
| 1787448416 | 27.22° C | 72% | 1012.5 hPa | 0 mm | - | - | - |
| 1787447216 | 26.67° C | 72% | 1012.5 hPa | 0 mm | - | - | - |
| 1787446016 | 26.11° C | 74% | 1012.5 hPa | 0 mm | - | - | - |
| 1787444818 | 26.11° C | 77% | 1012.5 hPa | 0 mm | - | - | - |
| 1787443616 | 25.56° C | 80% | 1012.3 hPa | 0 mm | - | - | - |
| 1787442416 | 25° C | 83% | 1012.3 hPa | 0 mm | - | - | - |
* Rain latest hour (hover to see other rain measurements)
** Current wind speed in m/s (hover to see current wind gust speed)